Regional Weather Roundup
Issued by NWS Northern Indiana

Home | Current Version | Previous Version | Text Only | Print | Product List | Glossary Off
Versions: 1 2 3 4 5 6 7 8 9 10 11 12 13 14 15 16 17 18 19 20 21 22 23 24 25 26 27 28 29 30 31 32 33 34 35 36 37 38 39 40 41 42 43 44 45 46 47 48 49 50

000
ASUS43 KIWX 260100
RWRIWX

KIWX WEATHER ROUNDUP
NATIONAL WEATHER SERVICE NORTHERN INDIANA
900 PM EDT MON MAY 25 2015

NOTE: "FAIR" INDICATES FEW OR NO CLOUDS BELOW 12,000 FEET WITH NO
SIGNIFICANT WEATHER AND/OR OBSTRUCTIONS TO VISIBILITY.

* THESE STATIONS ARE NOT UNDER NWS QUALITY CONTROL. THEY ALSO MAY NOT
  REPORT WEATHER SUCH AS PRECIPITATION OR FOG.

INZ001>027-260200-
NORTHERN INDIANA

CITY           SKY/WX    TMP DP  RH WIND       PRES   REMARKS
GARY*          MOCLDY    81  57  44 SW12      29.93S
SOUTH BEND     MOCLDY    76  57  51 SW6       29.96R
GOSHEN         MOCLDY    75  62  64 SW14      29.97R
ANGOLA*        CLEAR     75  63  64 SW10      29.98S
FORT WAYNE     MOCLDY    74  61  63 SW13      30.01S

$$
INZ028>050-260200-
CENTRAL INDIANA

CITY           SKY/WX    TMP DP  RH WIND       PRES   REMARKS
LAFAYETTE      MOCLDY    74  63  68 S8        29.99S
KOKOMO*        MOCLDY    73  63  68 S13       30.01S
MUNCIE*        MOCLDY    75  63  66 SW10G23   30.04S
INDIANAPOLIS   CLOUDY    72  63  73 S13       30.03R

$$
MIZ043>046-050>051-056>058-064>065-071>073-077>080-260200-
SOUTHWEST LOWER MICHIGAN

CITY           SKY/WX    TMP DP  RH WIND       PRES   REMARKS
BATTLE CREEK   MOCLDY    72  61  68 S3        29.96S
BENTON HARBOR  CLOUDY    72  58  61 SW9       29.94R
COLDWATER*     MOCLDY    73  56  56 SW3       29.97S
HILLSDALE*     MOCLDY    75  61  61 SW7       29.99S
HOLLAND        MOCLDY    72  58  61 SW10G22   29.93S
GRAND RAPIDS   CLOUDY    73  60  63 SW12      29.93S
KALAMAZOO      CLOUDY    72  60  66 SW3       29.96R
STURGIS*       MOCLDY    73  59  60 SW3       29.96S
THREE RIVERS*  FAIR      73  58  61 SW5       29.96S

$$
OHZ001>008-015>018-024>025-260200-
NORTHWEST OHIO

CITY           SKY/WX    TMP DP  RH WIND       PRES   REMARKS
DEFIANCE       MOCLDY    77  60  55 SW12G21   30.00R
FINDLAY        MOCLDY    74  62  66 S16       30.03R
TOLEDO EXPRESS MOCLDY    77  60  55 SW8       30.00R
TOLEDO METCALF MOCLDY    78  59  51 SW13      30.01R
LIMA           MOCLDY    73  61  65 S10       30.05R

$$
AND FOR LAKE MICHIGAN COASTAL AND OPEN LAKE BUOY OBSERVATIONS

STATION/POSITION TEMP    WIND        PRES    VSBY  WAVE
                 AIR SEA DIR/SP/G                  HT/PER
                 (F)     (DEG/KT/KT) (MB)    (MI)  (FT/S)
CALUMET HARBOR    79     210/  6/  8   N/A
MICHIGAN CITY     78     190/ 13/ 15   N/A
BURNS HARBOR      78     210/ 10/ 15 1013.9S
SAINT JOSEPH      69     180/  7/ 13 1014.9R
SOUTH LAKE BUOY   47 38  200/ 10/ 10 1013.0S         1/ 4
4 MI NW BRIDGMAN  60 55  230/  6/  6   N/A           2/ 4
MICHIGAN CITY     63 52  230/  6/  8   N/A           1/ 3
MICHIGAN CITY CG     54              1015.8      6   0
SAINT JOSEPH CG                      1013.1      6   1

$$
&&


USA.gov is the U.S. government's official web portal to all federal, state and local government web resources and services.